EW8108 Weather Reports


time (UTC)temp
F
wind
direction
speed
knots
gust
knots
rain 1hr
in
rain 24hr
in
rain mn
in
humidity
%
barometer
mb
20260504050644 64 238 0.0 2.6 0.00 0.00 0.00 64 978.1
20260504044449 63 215 0.0 0.0 0.00 0.00 0.00 64 978.2
20260504043420 63 215 0.0 0.0 0.00 0.00 0.00 64 978.3
20260504041210 62 215 0.0 0.0 0.00 0.00 0.00 63 978.3
20260504040142 62 215 0.0 0.0 0.00 0.00 0.00 63 978.4
20260504033938 61 215 0.0 0.0 0.00 0.00 0.00 64 978.2
20260504032943 62 215 0.0 0.0 0.00 0.00 0.00 64 978.2
20260504031923 62 215 0.0 0.0 0.00 0.00 0.00 64 978.2
20260504030925 63 215 0.0 0.0 0.00 0.00 0.00 63 978.2
20260504025937 63 215 0.0 0.0 0.00 0.00 0.00 63 978.4
20260504024949 63 215 0.0 0.0 0.00 0.00 0.00 63 978.3
20260504024006 63 215 0.0 0.0 0.00 0.00 0.00 63 978.4
20260504023005 64 215 0.0 0.0 0.00 0.00 0.00 62 978.2
20260504020918 65 215 0.0 0.0 0.00 0.00 0.00 61 978.2
20260504012503 68 215 0.0 0.0 0.00 0.00 0.00 55 977.7
20260504010302 70 215 0.0 0.0 0.00 0.00 0.00 51 977.7
20260504005251 71 215 0.0 0.0 0.00 0.00 0.00 49 977.7
20260504004228 72 215 0.0 0.0 0.00 0.00 0.00 47 977.6
20260504002052 74 215 0.0 0.0 0.00 0.00 0.00 45 977.8
20260504001019 74 209 0.0 0.0 0.00 0.00 0.00 44 977.9
20260504000034 74 209 0.0 0.0 0.00 0.00 0.00 42 978.1
20260503235036 75 207 0.0 0.0 0.00 0.00 0.00 42 978.3
20260503234045 76 204 0.0 0.0 0.00 0.00 0.00 43 978.2
20260503231918 77 257 0.0 0.0 0.00 0.00 0.00 40 978.4
20260503225800 78 286 0.0 0.0 0.00 0.00 0.00 37 978.1
20260503224754 80 291 0.0 2.6 0.00 0.00 0.00 36 978.4
20260503223817 81 219 0.0 0.9 0.00 0.00 0.00 36 978.3
20260503222758 81 275 0.0 3.5 0.00 0.00 0.00 35 978.7
20260503221814 81 278 0.0 0.9 0.00 0.00 0.00 36 978.7
20260503220836 81 246 0.0 0.9 0.00 0.00 0.00 34 978.8
20260503215846 81 211 0.0 5.2 0.00 0.00 0.00 36 978.9
20260503214858 81 235 0.0 0.0 0.00 0.00 0.00 37 979.0
20260503212735 82 272 0.0 0.9 0.00 0.00 0.00 38 979.5
20260503211738 81 275 0.0 2.6 0.00 0.00 0.00 37 979.5
20260503210723 81 202 0.0 1.7 0.00 0.00 0.00 35 979.6
20260503205742 82 263 0.0 3.5 0.00 0.00 0.00 35 979.9
20260503204741 82 253 0.0 2.6 0.00 0.00 0.00 38 980.1
20260503203805 82 144 0.0 3.5 0.00 0.00 0.00 37 980.1
20260503201611 82 296 0.0 0.9 0.00 0.00 0.00 35 980.7
20260503195420 82 254 0.0 1.7 0.00 0.00 0.00 33 980.9
20260503194437 82 263 0.0 0.9 0.00 0.00 0.00 36 981.0
20260503193448 82 250 0.0 2.6 0.00 0.00 0.00 34 981.0
20260503192415 82 261 0.0 0.9 0.00 0.00 0.00 36 981.2
20260503191440 82 252 0.0 3.5 0.00 0.00 0.00 35 981.2
20260503185315 82 252 0.0 0.0 0.00 0.00 0.00 37 981.6
20260503184333 81 252 0.0 2.6 0.00 0.00 0.00 35 981.8
20260503182216 81 245 0.0 1.7 0.00 0.00 0.00 37 982.1
20260503181238 81 244 0.0 2.6 0.00 0.00 0.00 34 982.3
20260503180244 80 249 0.0 0.0 0.00 0.00 0.00 40 982.5
20260503175247 80 249 0.0 0.0 0.00 0.00 0.00 40 982.8
20260503174304 79 239 0.0 0.0 0.00 0.00 0.00 40 982.9
20260503173302 79 196 0.0 0.0 0.00 0.00 0.00 39 982.9
20260503172235 78 263 0.0 0.0 0.00 0.00 0.00 38 983.0
20260503171235 78 263 0.0 1.7 0.00 0.00 0.00 42 983.2
20260503170240 78 242 0.0 0.0 0.00 0.00 0.00 43 983.4
20260503151004 72 140 0.0 0.0 0.00 0.00 0.00 56 984.1
20260503090318 52 138 0.0 0.0 0.00 0.00 0.00 1 981.9
20260503081320 53 138 0.0 0.0 0.00 0.00 0.00 1 982.0
20260503080251 53 138 0.0 0.0 0.00 0.00 0.00 1 982.1
20260503072308 54 138 0.0 0.0 0.00 0.00 0.00 1 982.2
20260503071246 54 138 0.0 0.0 0.00 0.00 0.00 2 982.3
20260503054701 54 138 0.0 0.0 0.00 0.00 0.00 30 982.5
20260503053714 54 138 0.0 0.0 0.00 0.00 0.00 38 982.6
20260503052718 55 138 0.0 0.0 0.00 0.00 0.00 41 982.6
20260503051656 55 138 0.0 0.0 0.00 0.00 0.00 40 982.7